1st Responders/1st Detectors/Storm Spotters Weather Summary for Caldwell County, KY

Forecast Maps


Reg. NEXRAD Animation


National Fire Danger: Day 1 & 2 Map

Current NWS Watch/Warnings

SPC Convective Day 1 Outlook


Day 2 Outlook

(Click images to enlarge|Page will refresh every 5 minutes)
UK Ag. Weather Center Desktop Severe Weather Service[HERE]
Caldwell County, KY Hazardous Weather Outlook Webcast
(9 AM to 9 PM Mon-Fri)
[Fast]
[Dial-up]


UKAWC 1st Detectors/1st Responders Precision Weather Forecast For CALDWELL County, Kentucky
(based on the NWS County Digital Forecast)

ISSUED AT 14:00 UTC ON SUNDAY JUL 22 2018
DAY SUNDAY
CDT 3HR 10A 11A NOON 1P 2P 3P 4P 5P 6P
MAX/MIN -- -- -- -- -- -- -- -- 81°
TEMP 74° 76° 77° 79° 81° 81° 81° 81° 79°
SKY COVER 91% 88% 86% 83% 80% 77% 74% 79% 83%
Clouds
DEW PT 67° 67° 68° 68° 68° 68° 68° 68° 68°
RH 78% 74% 73% 68% 67% 65% 65% 67% 71%
POP 12HR -- -- -- -- -- -- -- -- --
RAIN/SNOW (liq.equ) -- -- -- 0.00in -- -- -- -- --
SNOWFALL -- -- -- 0in -- -- -- -- --
WIND SPEED(MPH) 9 9 9 9 9 10 10 10 10
WIND Gust(MPH) 15 15 15 15 15 15 15 15 15
WIND DIR NW NW NW NW NW NW NW NW NW
DEW -- Lgt Dew Lgt Dew -- -- -- -- -- --
HeatIndex 74 76 77 82 84 85 85 84 79
Rain Showers Slight Chance Slight Chance Slight Chance Chance Chance Chance Chance Chance Chance
Thunder Storm -- -- -- Slight Chance Slight Chance Slight Chance Slight Chance Slight Chance Slight Chance
WIND CHILL -- -- -- -- -- -- -- -- --
SPRAY COND
DRY COND
LIVESTOCK HEATSTRESS 72.16 73.54 74.30 75.44 76.97 76.73 76.73 76.97 75.78



DAY MONDAY TUESDAY WEDNESDAY THURSDAY FRIDAY SATURDAY
CDT 6HR 7P 8P 9P 10P 11P MIDN 1A 2A 3A 4A 5A 6A 7A 8A 9A 10A 11A NOON 1P 2P 3P 4P 5P 6P 7P 8P 9P 10P 1A 4A 7A 10A 1P 4P 7P 1A 7A 1P 7P 1A 7A 1P 7P 1A 7A 1P 7P 1A 7A 1P 7P
MAX/MIN -- -- -- -- -- -- -- -- -- -- -- -- 67° -- -- -- -- -- -- -- -- -- -- 83° -- -- -- -- -- -- 67° -- -- 85° -- -- 67° 88° -- -- 68° 88° -- -- 68° 86° -- -- 67° 85° --
TEMP 76° 74° 74° 72° 70° 70° 68° 67° 67° 67° 67° 67° 67° 68° 70° 72° 76° 79° 81° 81° 83° 83° 81° 81° 79° 76° 74° 72° 70° 67° 68° 79° 85° 85° 81° 70° 68° 85° 83° 72° 70° 88° 83° 72° 70° 85° 81° 70° 70° 85° 79°
SKY COVER 88% 88% 89% 89% 87% 84% 82% 78% 73% 69% 70% 72% 73% 67% 56% 51% 47% 40% 37% 38% 41% 43% 43% 42% 42% 39% 34% 31% 26% 23% 24% 28% 45% 34% 38% 24% 15% 19% 16% 9% 10% 20% 34% 48% 50% 43% 54% 56% 59% 61% 71%
Clouds
DEW PT 68° 68° 68° 68° 68° 67° 67° 67° 67° 67° 67° 67° 67° 67° 67° 67° 67° 67° 67° 67° 67° 67° 67° 67° 67° 67° 65° 65° 65° 65° 65° 68° 68° 68° 70° 67° 65° 67° 68° 67° 67° 67° 68° 67° 65° 67° 67° 65° 65° 67° 68°
RH 76% 81% 84% 87% 93% 92% 97% 100% 96% 96% 100% 100% 99% 93% 87% 81% 73% 66% 62% 60% 58% 58% 60% 62% 66% 71% 76% 78% 84% 90% 87% 68% 58% 57% 67% 90% 90% 54% 63% 84% 87% 49% 60% 81% 81% 54% 62% 84% 86% 57% 71%
POP 12HR 37% -- -- -- -- -- -- -- -- -- -- -- 14% -- -- -- -- -- -- -- -- -- -- -- 7% -- -- -- -- -- 2% -- -- -- 8% -- 5% -- 5% -- 2% -- 5% -- 5% -- 21% -- 21% -- 37%
RAIN/SNOW (liq.equ) 0.04in -- -- -- -- -- 0.00in -- -- -- -- -- 0.00in -- -- -- -- -- 0.00in -- -- -- -- -- 0.00in -- -- -- 0.00in -- 0.00in -- 0.00in -- 0.00in -- -- -- -- -- -- -- -- -- -- -- -- -- -- -- --
SNOWFALL 0in -- -- -- -- -- 0in -- -- -- -- -- 0in -- -- -- -- -- 0in -- -- -- -- -- 0in -- -- -- 0in -- 0in -- 0in -- 0in -- -- -- -- -- -- -- -- -- -- -- -- -- -- -- --
WIND SPEED(MPH) 9 8 7 7 6 6 6 6 7 7 7 7 7 7 8 8 8 9 9 10 10 10 9 8 7 7 6 5 5 5 6 7 7 7 7 5 6 7 6 2 2 6 6 2 5 6 6 2 5 2 5
WIND DIR NW NW N N N N N N N N N N N N N N N N N N N N N N N N N N N N N N N N N N N N N N NW N N NE NE N N NE NE NW N
HeatIndex 76 74 74 72 70 70 68 67 67 67 67 67 67 68 70 72 76 79 83 84 85 85 84 83 79 76 74 72 70 67 68 82 88 90 85 70 68 89 86 72 70 91 87 72 70 89 83 70 70 88 79
Rain Showers -- -- -- -- -- -- -- -- -- -- -- -- -- -- -- -- -- -- -- -- -- -- -- -- -- -- -- -- -- -- -- -- -- -- -- -- -- -- -- -- -- -- -- -- Slight Chance -- -- Slight Chance Chance Chance --
Thunder Storm -- -- -- -- -- -- -- -- -- -- -- -- -- -- -- -- -- -- -- -- -- -- -- -- -- -- -- -- -- -- -- -- -- -- -- -- -- -- -- -- -- -- -- -- Slight Chance -- -- Slight Chance Chance Chance --
WIND CHILL -- -- -- -- -- -- -- -- -- -- -- -- -- -- -- -- -- -- -- -- -- -- -- -- -- -- -- -- -- -- -- -- -- -- -- -- -- -- -- -- -- -- -- -- -- -- -- -- -- -- --
SPRAY COND
DRY COND
LIVESTOCK HEATSTRESS 73.73 72.41 72.66 71.06 69.57 69.51 67.85 67.00 66.82 66.82 67.00 67.00 66.95 67.65 69.20 70.62 73.45 75.22 76.36 76.12 77.41 77.41 76.12 76.36 75.22 73.26 71.99 70.40 69.01 66.55 67.34 75.44 78.95 78.80 76.97 69.38 67.49 78.37 78.08 70.84 69.20 79.81 77.68 70.62 68.83 78.37 76.36 69.01 69.14 78.80 75.78

Click on individual weather variable above in left-hand column (ie., TEMP, RH, QPF 12HR) to view state forecast maps






NWS 48 Hr. Forecast Maps,

Regional Hourly Observations For CALDWELL County, Kentucky
Issued at 1000 AM EDT SUN JUL 22 2018
WESTERN AND SOUTH CENTRAL KENTUCKY
  
CITY           SKY/WX    TMP DP  RH WIND       PRES   REMARKS
PADUCAH        CLOUDY    74  65  73 NW8       29.84S                  
HENDERSON      CLOUDY    71  67  87 NW13      29.81S                  
OWENSBORO      PTSUNNY   71  68  90 NW10      29.79S                  
HOPKINSVILLE   CLOUDY    71  66  84 NW8G20    29.82S                  
BOWLING GREEN  CLOUDY    73  68  84 W9        29.80R                  
GLASGOW        CLOUDY    71  65  81 W6        29.79R                  


Current NOWCAST not available:
Nowcasts are not issued routinely during fair weather. Only when
precipitation or other significant weather is occuring in this county will these
forecasts be issued. Currently, there is no short term forecast in effect.


Fire Weather Forecast For CALDWELL County, KY
Provided by the National Weather Service:

Issued at: Sun Jul 22 10:05:01 EDT 2018

Precip Type           tstms        tstms        NONE         
Chance Precip (%)     50           30           0            
High Temperature(F)   78-82                     79-83        
Minimum RH(%)         62-67                     54-59        
Low Temperature(F)                 64-68                     
Maximum RH(%)                      95-100                    
Temp (24h Trend)      81 (-4)      66 (-2)      82           
RH % (24h Trend)      65 (+10)     100 (+4)     57           
20FTWND-AM(MPH)       NW 7-11                   N 5-9        
20FTWND-PM(MPH)       NW 8-12      NW 5-9       N 7-11       
Precip Amount         0.07         0.01         0.00         
Precip Duration       2            1                         
Precip Begin          7 AM         Continuing                
Precip End            Continuing   1 AM                      
1700'Mix Hgt Temp     72                        72           
Mixing Hgt(FT-AGL)    3861                      4496         
Transport Wind (KTS)  W 13                      N 11         
Transport Wind (M/S)  W  7                      N  6         
Vent Rate (M/S-M)     8239                      8220         
Dispersion Index      Fair to Good              Fair to Good 
LAL                   2            3            2            
Haines Index          2            2            2            
Stability(DSI)        SLGT UNSTBL  SLGT UNSTBL  SLGT UNSTBL  

Remarks...None.

.Forecast for days 3 through 7...

.MONDAY NIGHT...Partly cloudy. Lows in the upper 60s. North winds
5 to 10 mph. 
.TUESDAY...Mostly sunny. Highs in the mid 80s. North winds 5 to
10 mph. 
.TUESDAY NIGHT...Partly cloudy. Lows in the upper 60s. North
winds around 5 mph. 
.WEDNESDAY...Sunny. Highs in the upper 80s. North winds 5 to
10 mph. 
.WEDNESDAY NIGHT...Mostly clear. Lows in the upper 60s. North
winds around 5 mph. 
.THURSDAY...Sunny. Highs in the upper 80s. Northwest winds around
5 mph. 
.THURSDAY NIGHT...Partly cloudy. Lows in the upper 60s. Northeast
winds around 5 mph. 
.FRIDAY...Mostly sunny with a 20 percent chance of showers and
thunderstorms. Highs in the upper 80s. North winds around 5 mph. 
.FRIDAY NIGHT...Mostly cloudy with a 20 percent chance of showers
and thunderstorms. Lows in the upper 60s. Northeast winds around
5 mph. 
.SATURDAY...Partly sunny with a 40 percent chance of showers and
thunderstorms. Highs in the mid 80s. North winds around 5 mph. 

SPC's Fire Weather Web Tool (Excellent!), SPC's Fire Weather Outlooks, NWS Fire Weather WEB, Fire Danger Class Map,
Keetch-Byram Drought Index, ROMAN Web, Haines Index ,
WFAS's 10-hr Dead Fuel Moist., WFAS's 100-hr Dead Fuel Moist., Probablity of Ignition, Visual blackness Map, Palmer Drought Index, HPC's Rainfall Forecast Maps


Hazardous Weather Outlook For CALDWELL County, Kentucky
404 AM CDT Sun Jul 22 2018

 DAY ONE  Today and Tonight

The chance of thunderstorms today will be best in our east. Brief
heavy rain and lightning will be the primary hazards.

 DAYS TWO THROUGH SEVEN  Monday through Saturday

Other than very isolated chances, the next best chance of 
thunderstorms returns to the forecast next weekend. At this time,
severe weather is not expected.

 SPOTTER INFORMATION STATEMENT  

Spotter activation will not be needed.

Latest CALDWELL County, Kentucky Watches, Warnings and Advisories.
Additional Drought Info.: UKAWC Drought Page, Kentucky Drought Watch


7-Day Forecast For CALDWELL County, KY

TODAY
Cloudy. A slight chance of showers in the morning, then a chance of showers and a slight chance of thunderstorms in the afternoon. Highs in the lower 80s. Northwest winds around 10 mph. Chance of precipitation 40 percent.

TONIGHT
Mostly cloudy. A 20 percent chance of showers and thunderstorms in the evening. Lows in the upper 60s. North winds 5 to 10 mph.

MONDAY
Partly sunny. Highs in the lower 80s. North winds around 10 mph.

MONDAY NIGHT
Mostly clear. Lows in the upper 60s. North winds 5 to 10 mph.

TUESDAY
Partly sunny. Highs in the mid 80s. North winds 5 to 10 mph.

TUESDAY NIGHT
Mostly clear. Lows in the upper 60s.

WEDNESDAY
Mostly sunny. Highs in the upper 80s.

WEDNESDAY NIGHT
Mostly clear. Lows in the upper 60s.

THURSDAY
Mostly sunny. Highs in the upper 80s.

THURSDAY NIGHT
Partly cloudy. Lows in the upper 60s.

FRIDAY
Partly sunny with a 20 percent chance of showers and thunderstorms. Highs in the upper 80s.

FRIDAY NIGHT
Partly cloudy. A 20 percent chance of showers and thunderstorms after midnight. Lows in the upper 60s.

SATURDAY
Partly sunny with a 40 percent chance of showers and thunderstorms. Highs in the mid 80s.

Ag Weather Center, Department of Biosystems & Agricultural Engineering, University of Kentucky